Wind_Speed
19 19 18 18 18 18 17 17 17 17 18 18 19 18 18 18 18 18 18 19 18 17 15 14 13 13 13 13 13 13 13 13 14 16 18 18 19 21 20 19 18 18 18 16 15 16 15 15 15 14 14 13 12 12 11 10 10 9 8 8 7 7 6 7 6 5 5 5 6 6 6 6 5 4 4 5 4 4 4 4 5 6 7 8 9 9 4 5
21 21 21 21 20 20 19 19 19 18 18 18 19 19 19 19 18 18 18 19 20 19 17 16 15 15 15 15 14 14 14 15 15 14 15 19 21 21 21 20 20 20 20 19 19 19 18 18 18 17 16 15 14 13 12 12 11 10 9 8 7 8 7 7 7 6 6 7 7 7 8 7 5 5 5 6 6 4 4 4 5 5 7 8 9 11 7 4
24 24 24 24 24 23 23 22 22 21 20 20 20 19 19 19 19 19 19 20 20 20 19 18 17 16 17 17 16 15 15 16 16 13 15 18 20 21 21 20 21 23 24 23 23 23 22 22 21 19 17 17 16 14 14 13 13 11 10 9 8 8 8 8 8 7 7 9 9 8 8 7 7 7 7 7 7 5 4 4 5 5 6 6 7 11 10 4
27 27 27 27 26 26 26 26 25 24 24 23 22 21 21 21 20 20 20 20 21 21 20 19 18 18 18 18 18 17 17 17 17 15 15 17 18 20 21 21 24 26 26 25 24 24 24 22 21 19 18 17 16 15 15 15 15 13 11 11 9 10 9 8 8 8 9 11 11 9 8 7 8 9 8 7 7 6 5 4 5 5 5 6 6 9 11 7
28 28 28 28 28 28 28 28 28 27 27 26 25 24 24 23 23 22 21 21 21 21 21 21 20 19 19 19 19 19 18 18 18 16 16 17 17 18 20 23 26 27 27 26 25 25 23 21 20 19 18 16 15 14 16 17 16 15 13 11 11 11 11 10 10 10 11 13 13 12 9 7 8 10 9 7 7 6 5 5 5 6 5 6 6 7 11 10
28 28 29 29 29 29 29 29 29 29 29 29 28 28 27 26 26 25 24 23 22 22 22 22 21 21 20 20 20 20 21 20 18 18 19 19 18 19 20 22 25 26 26 25 24 24 22 22 21 19 18 17 15 15 17 18 17 17 14 12 13 13 12 11 12 13 13 13 13 13 12 9 8 9 8 6 7 7 7 6 5 7 6 5 5 6 9 11
27 28 28 28 29 29 30 30 30 30 30 30 30 30 29 29 29 28 27 26 25 24 23 23 23 23 22 21 21 21 22 21 19 21 21 20 19 19 20 21 23 24 25 24 23 22 22 22 21 20 21 20 17 16 18 18 18 19 16 15 16 16 15 14 14 14 15 13 13 13 13 11 10 9 7 5 6 8 8 6 5 8 7 6 6 5 5 8
27 27 27 28 28 28 29 30 30 30 31 31 31 31 30 31 31 30 30 30 28 27 25 24 24 24 24 23 22 22 23 22 21 23 23 20 20 20 21 21 21 22 24 25 25 24 23 23 22 23 23 21 19 20 21 19 19 19 19 19 18 18 17 16 16 17 16 15 15 15 14 12 11 10 8 7 6 7 8 7 6 8 9 8 6 5 5 6
26 27 27 27 28 28 28 29 30 30 30 31 31 31 31 31 32 32 32 32 31 30 29 27 26 25 25 25 24 23 24 23 22 24 24 22 22 21 22 22 22 22 23 25 27 26 25 24 24 25 25 25 24 24 23 20 18 20 23 23 21 21 20 18 18 18 17 16 17 17 16 14 12 12 11 9 8 8 9 9 9 10 11 10 8 6 5 5
26 27 27 27 28 28 28 29 30 30 30 31 31 31 31 32 32 33 33 33 33 33 32 31 29 27 27 26 26 26 26 25 24 24 25 24 24 24 24 23 23 23 23 24 26 26 26 27 29 29 30 30 29 28 24 20 20 24 27 26 24 24 23 20 19 19 17 16 16 18 17 15 13 13 12 11 11 10 11 11 10 11 11 11 9 8 6 4
27 27 28 28 28 29 30 30 31 30 31 31 32 32 31 32 32 33 33 33 34 34 34 33 32 30 29 28 28 29 29 27 25 25 25 25 26 26 26 25 24 25 25 24 24 27 30 32 33 32 32 31 30 29 24 22 24 28 30 27 25 26 24 20 19 19 18 16 16 17 17 15 15 14 14 12 12 10 10 12 10 10 12 11 10 8 7 6
30 30 30 30 30 31 31 32 32 32 32 32 33 33 32 32 32 33 33 34 34 34 34 34 33 33 32 31 32 31 30 29 26 26 26 27 28 28 29 28 26 27 27 27 27 29 31 33 34 32 32 31 31 30 26 26 29 31 31 28 26 28 25 19 20 19 18 18 18 17 16 15 15 16 15 15 12 9 8 11 10 10 12 12 11 8 7 6
34 34 34 34 34 34 34 35 34 34 34 34 35 34 34 34 33 33 33 34 34 34 34 34 34 34 33 34 36 34 32 31 29 29 29 28 29 30 31 30 29 28 28 29 30 30 31 32 33 33 34 33 33 31 27 28 32 32 31 28 28 29 22 20 21 19 18 20 18 15 16 16 16 16 15 15 13 10 9 9 11 12 12 13 12 10 7 5
38 38 38 38 38 38 38 38 38 37 37 37 37 36 35 35 35 35 35 35 35 34 33 34 34 35 34 36 38 36 35 35 33 33 31 30 30 30 31 32 31 30 30 31 32 31 30 30 32 34 35 34 34 33 30 31 33 33 32 30 29 26 20 21 23 20 19 20 18 15 17 18 15 15 16 14 12 12 10 9 10 13 13 13 13 11 8 5
40 41 41 41 41 41 41 42 41 41 41 41 41 39 38 38 37 37 37 37 36 35 34 34 34 34 34 37 39 38 38 38 37 34 32 31 31 31 32 32 33 34 34 34 33 32 31 30 31 31 32 34 35 35 33 32 33 34 33 29 27 22 19 23 24 21 21 20 18 15 17 19 16 16 18 15 12 12 11 9 11 12 12 13 14 12 9 6
41 42 43 43 43 43 43 43 43 43 43 44 44 43 41 41 40 40 40 40 38 37 36 34 34 34 35 36 38 40 40 40 39 36 35 34 33 33 34 34 34 35 35 35 34 34 34 32 30 30 32 35 36 36 33 33 34 34 32 26 24 21 21 25 24 21 22 21 18 16 18 20 18 18 18 15 12 13 13 11 12 12 12 12 14 14 10 7
42 43 44 45 44 44 44 45 45 45 45 45 45 45 44 44 43 43 44 43 41 39 38 36 34 34 35 36 38 41 41 40 40 39 38 37 36 36 36 34 33 34 36 37 36 36 35 33 32 31 32 33 35 36 36 34 32 31 27 23 22 22 23 25 23 23 24 22 19 17 18 20 20 20 18 16 14 15 15 14 14 14 12 12 14 15 12 9
44 44 45 45 45 45 45 45 45 45 45 45 46 46 45 45 45 45 46 46 44 42 41 39 37 36 37 37 37 40 41 40 39 40 40 39 39 39 38 37 36 37 37 38 38 37 36 34 33 33 33 34 34 34 33 28 25 26 24 22 22 23 24 24 23 24 25 24 22 19 19 20 21 21 20 18 18 18 18 17 16 15 14 13 13 15 14 10
46 46 46 46 46 45 45 45 45 45 45 45 45 46 45 46 45 45 48 48 46 45 44 42 40 39 39 38 38 39 40 40 40 40 41 40 41 42 41 41 41 40 40 39 37 37 36 35 36 36 33 30 28 26 24 22 24 26 25 24 24 24 24 23 23 25 27 28 24 20 19 21 23 22 21 19 19 21 21 20 17 16 15 13 13 14 15 12
49 48 48 47 47 46 45 45 45 45 44 44 44 45 45 45 45 45 47 50 48 46 46 45 43 42 41 40 39 38 40 41 41 41 42 41 42 44 45 44 44 43 41 38 37 37 38 39 38 33 26 23 22 22 22 23 26 28 27 27 26 25 24 24 25 27 29 30 25 20 20 22 23 23 22 22 22 22 21 19 18 17 15 14 13 13 15 12
51 50 49 49 48 47 47 46 45 45 44 44 43 43 44 44 44 44 45 49 50 47 46 47 46 45 44 42 41 40 41 42 43 43 42 42 43 46 47 47 46 44 42 39 39 39 40 42 36 28 25 26 26 26 25 25 26 29 29 28 27 24 23 25 28 28 30 30 25 23 22 22 23 24 24 25 24 22 20 19 19 18 16 14 13 12 13 13
51 50 49 48 48 48 47 47 46 46 45 45 44 43 43 43 44 43 42 45 50 49 47 47 47 47 46 45 44 43 42 43 45 45 43 42 44 46 48 49 48 45 43 43 43 42 43 39 28 25 29 31 31 31 29 27 28 30 31 30 28 24 23 26 28 28 31 30 26 26 24 23 25 27 28 27 24 22 21 20 20 20 18 15 13 11 12 13
49 49 48 47 47 47 46 45 46 46 46 46 45 44 43 43 43 44 42 43 47 49 47 47 48 48 47 47 46 45 45 46 47 48 46 44 44 46 49 50 49 47 46 47 46 44 42 31 22 28 35 35 35 34 32 30 30 32 32 32 29 24 23 25 27 30 32 30 27 29 28 26 27 30 30 27 27 27 25 24 24 23 21 18 17 15 14 13
47 46 46 44 44 44 43 43 43 43 44 44 44 44 43 43 42 43 43 43 45 47 47 47 49 48 48 48 47 48 48 48 49 50 48 47 46 47 49 50 50 50 49 49 47 46 41 30 26 34 37 35 36 35 33 32 31 32 33 32 29 25 23 24 28 32 33 31 29 30 31 28 29 29 28 28 31 33 30 29 29 27 24 23 21 19 17 15
44 44 43 41 40 40 39 39 39 38 40 41 41 42 41 41 41 41 41 42 43 45 45 46 48 48 48 48 48 49 49 50 51 51 50 48 48 48 48 49 51 52 50 50 50 48 44 36 34 38 37 35 37 36 35 34 31 32 32 29 27 27 25 26 31 34 35 34 31 32 34 31 30 29 25 28 34 35 32 32 30 28 27 24 21 18 16 16
41 40 39 37 36 36 36 36 34 34 36 37 38 38 38 38 38 39 40 39 40 42 42 43 45 47 47 47 48 49 49 51 52 52 51 49 49 49 49 49 51 52 51 51 52 51 46 40 39 41 39 37 38 38 37 34 33 32 27 25 27 30 31 31 33 36 38 36 33 36 37 34 33 31 26 28 34 35 33 32 31 29 27 23 21 19 17 16
39 37 36 35 34 35 36 35 34 34 34 34 35 35 34 34 34 34 36 37 37 38 39 40 42 44 46 47 47 47 48 50 51 53 53 50 50 51 50 50 50 51 52 53 55 54 49 44 44 44 42 40 40 39 36 35 35 29 23 26 31 34 35 34 34 38 39 37 37 40 40 38 37 33 29 29 32 34 32 31 32 30 27 23 21 21 19 17
36 34 34 34 34 35 36 36 36 35 34 34 34 32 31 31 30 29 30 31 31 32 35 36 37 40 44 45 45 46 48 49 49 52 54 51 50 51 51 51 51 50 52 55 57 54 49 47 47 46 44 41 39 35 33 36 36 27 25 31 33 35 37 37 38 39 39 40 42 42 42 43 40 34 32 31 32 31 28 29 33 30 27 25 23 22 20 19
33 32 32 32 33 35 36 36 35 34 34 34 34 32 31 30 29 28 28 29 28 27 29 31 33 36 39 42 43 44 45 48 48 49 53 52 50 50 52 53 53 53 53 55 56 53 49 48 49 48 46 42 37 33 34 38 36 30 30 33 33 36 39 41 43 42 41 45 46 42 42 46 42 35 36 34 29 25 25 30 34 31 28 27 24 22 20 19
30 30 30 30 32 34 35 34 31 30 29 31 32 32 31 31 31 31 31 29 27 27 26 26 28 31 34 38 42 43 43 45 47 47 51 52 50 50 53 54 55 55 55 54 55 54 51 50 51 51 48 44 40 37 38 39 36 33 35 36 35 39 41 43 46 45 46 51 47 41 42 47 45 37 37 33 22 21 26 32 33 31 29 27 25 23 22 21
29 30 29 29 31 32 32 30 28 27 26 25 27 29 30 32 32 33 34 32 31 31 29 28 28 29 30 33 37 41 42 43 45 45 48 51 50 50 53 55 56 56 56 55 55 54 54 55 55 54 51 48 45 44 43 41 38 38 41 41 40 41 42 45 48 50 52 52 45 41 42 47 46 36 33 29 20 22 27 30 31 29 28 27 25 24 23 22
30 31 30 28 30 30 29 27 24 23 23 22 22 23 25 27 29 31 32 33 34 34 33 32 32 32 32 31 32 37 39 41 43 43 45 49 51 51 53 56 57 58 58 58 57 57 56 57 57 56 54 52 51 50 48 45 43 43 44 45 45 45 45 48 51 54 54 49 44 43 44 47 46 33 29 28 23 23 25 27 29 28 28 27 23 22 22 23
31 33 31 29 28 27 26 25 22 22 22 22 22 22 22 24 25 26 27 29 32 33 33 35 35 35 36 35 33 34 36 38 40 42 44 47 49 51 53 55 57 59 60 60 60 59 58 58 59 58 56 55 55 53 51 49 48 47 47 47 48 49 49 49 52 53 52 49 45 43 44 47 45 33 26 27 23 23 25 26 27 29 29 27 22 20 20 22
33 34 33 31 29 27 25 24 23 23 24 24 24 23 23 24 25 25 26 27 29 30 31 34 36 36 37 38 37 35 35 37 38 40 42 45 48 49 51 53 56 59 61 61 62 62 60 60 60 60 59 58 57 54 52 48 47 46 45 46 47 49 48 47 49 50 50 50 47 44 46 49 45 33 23 24 24 23 26 25 27 31 32 29 26 24 22 22
35 36 36 34 32 29 26 25 23 23 25 26 26 26 26 26 27 27 27 28 30 31 31 32 34 36 38 38 39 38 37 37 38 38 39 42 45 48 49 52 55 58 61 62 63 63 62 61 61 61 61 60 58 55 52 50 49 46 46 47 48 47 46 45 46 46 47 49 46 44 48 48 42 31 21 22 25 26 28 27 27 31 33 32 30 29 27 26
36 37 36 36 33 30 29 28 26 25 26 27 28 28 29 29 30 30 31 32 33 33 33 33 33 35 38 38 38 39 38 38 38 38 38 39 42 46 48 51 55 58 61 64 65 65 64 63 62 62 61 60 59 58 55 53 51 49 49 51 49 46 45 45 45 44 45 48 46 43 46 47 40 32 26 23 23 25 28 30 28 28 32 35 34 31 28 27
36 36 36 35 33 31 30 30 30 29 29 30 31 31 32 32 33 34 35 36 36 35 34 34 34 35 38 38 38 38 38 39 39 39 39 38 40 43 47 50 54 58 62 64 65 66 66 64 63 63 62 61 61 59 57 55 52 51 50 48 47 46 45 44 44 44 46 49 47 43 45 47 42 35 31 26 24 23 23 26 27 27 30 33 34 33 29 26
36 35 35 34 34 33 31 30 30 31 31 32 33 33 34 34 35 36 35 35 35 34 34 35 36 36 38 39 39 38 38 39 40 40 40 39 39 41 45 49 53 57 62 65 66 67 67 64 64 64 63 63 62 60 58 56 54 52 48 46 48 50 47 47 49 48 49 51 49 45 44 46 43 36 32 28 25 24 22 21 25 29 30 29 29 32 30 26
35 34 34 34 34 33 32 30 30 30 30 31 32 33 34 35 36 36 35 33 33 34 35 36 36 37 38 41 40 39 39 40 40 41 41 40 40 41 43 48 51 55 61 65 66 67 68 66 65 64 64 64 63 61 58 57 55 53 51 50 51 51 48 48 49 48 49 51 49 45 45 46 42 35 31 27 23 24 25 23 23 26 29 27 26 28 30 27
35 33 33 33 33 32 31 30 29 28 28 29 30 32 34 36 36 34 32 31 32 33 35 36 37 37 39 41 42 41 40 41 41 42 43 42 41 41 42 46 50 54 59 64 67 68 68 68 66 64 65 65 63 61 59 56 56 55 55 55 54 53 51 49 49 48 48 49 48 46 46 44 38 34 31 27 23 23 25 25 23 23 24 26 26 27 29 29
35 32 31 32 31 30 29 27 26 26 27 27 29 31 33 33 33 32 31 31 31 33 34 36 38 38 39 41 43 43 41 42 43 43 44 44 42 41 41 44 49 53 56 61 65 67 69 70 67 64 64 66 63 62 60 58 58 57 57 57 55 54 54 52 52 52 50 51 50 48 48 43 36 33 31 27 23 22 24 25 24 23 24 25 26 26 27 28
36 34 31 31 31 30 29 28 26 26 27 28 29 31 31 31 30 30 30 30 31 32 34 36 38 39 38 40 43 43 42 42 43 43 44 44 43 42 42 44 48 52 55 58 62 65 68 71 69 65 64 66 63 60 60 60 60 59 58 58 56 55 55 55 55 53 52 53 51 48 49 43 34 31 29 26 23 21 25 27 26 25 25 25 26 26 26 26
37 36 32 30 30 30 30 28 28 27 28 29 30 30 30 29 29 29 29 29 30 31 33 35 37 36 36 37 39 41 42 42 43 43 43 43 43 43 44 45 48 51 55 57 59 63 66 70 70 66 64 65 61 57 58 59 60 59 59 59 58 57 57 57 56 53 52 53 50 49 48 40 31 29 28 27 25 22 24 27 27 26 25 24 24 25 25 26
36 36 34 31 29 29 29 28 29 29 29 29 29 29 29 28 28 28 27 27 29 31 32 31 31 30 31 32 33 35 38 40 41 42 42 42 43 43 44 47 50 51 54 57 59 61 63 68 70 66 63 62 57 54 57 59 60 60 61 61 60 59 58 57 56 55 55 54 49 49 47 35 26 28 29 28 28 27 25 26 28 29 28 27 26 26 26 26
36 35 34 32 30 29 29 28 28 29 29 28 28 27 27 27 27 27 27 27 28 29 28 26 24 24 25 27 28 30 32 35 37 39 40 42 42 43 44 47 50 52 53 56 59 61 62 65 69 68 65 61 57 56 59 62 63 62 62 61 60 58 57 57 57 58 58 54 51 51 45 31 24 28 29 29 30 29 27 28 32 34 33 31 30 30 30 30
36 35 34 33 32 30 29 27 27 29 29 27 26 26 26 26 27 27 26 26 26 26 24 21 19 18 19 21 22 24 26 29 32 35 37 39 41 42 44 45 48 52 53 55 58 61 63 64 66 68 67 64 59 59 61 64 65 63 62 62 60 59 58 58 59 59 57 54 54 52 42 29 27 30 30 29 29 28 27 30 34 35 33 33 33 33 34 35
37 36 35 34 32 32 32 30 27 27 28 26 24 24 24 25 26 26 26 25 24 23 21 18 17 16 15 15 16 18 20 23 26 30 33 36 37 40 43 43 46 49 51 53 57 60 63 64 64 66 67 65 61 59 61 65 65 64 64 63 61 60 60 60 60 58 56 55 55 51 39 30 31 32 30 28 28 27 28 30 31 32 33 32 33 33 35 36
37 36 35 34 33 32 32 30 27 26 26 24 23 23 24 24 24 25 25 24 22 21 20 18 17 16 15 15 14 15 17 19 21 24 28 31 34 36 40 43 45 47 48 50 53 59 63 64 64 65 65 66 64 59 59 64 65 65 64 63 61 61 62 62 61 58 57 57 55 50 40 32 31 32 31 29 29 29 29 30 31 31 31 30 29 30 31 34
37 36 35 34 33 31 30 29 27 25 24 23 22 22 23 23 23 23 23 23 21 19 18 18 17 17 17 16 16 16 17 18 19 22 25 28 31 33 37 40 43 46 48 47 49 56 62 62 64 66 64 64 64 61 59 63 65 64 64 63 62 63 63 62 60 58 57 58 54 48 41 34 31 32 32 31 32 32 31 32 31 30 29 28 26 25 27 30
37 36 35 33 32 30 28 28 27 26 24 23 21 20 21 22 22 22 20 21 20 18 17 17 17 18 18 18 18 19 19 20 20 22 25 27 29 32 35 38 40 44 49 48 47 52 59 61 63 67 66 62 63 64 61 62 64 64 62 63 64 64 63 62 60 57 58 58 52 47 43 36 31 31 33 34 34 34 33 33 31 29 28 26 23 22 24 27
36 35 34 32 31 30 29 28 28 26 25 23 20 19 20 21 22 22 20 18 17 16 16 16 17 18 18 18 19 19 20 21 22 23 25 26 28 31 34 37 39 42 47 50 49 49 56 61 61 65 67 62 60 64 63 62 63 62 61 64 66 65 63 62 61 58 58 58 52 47 45 39 32 31 35 37 36 36 35 33 31 29 27 24 22 23 25 26
35 34 33 33 33 32 32 31 29 27 25 23 20 18 20 21 21 21 20 18 16 14 14 15 14 15 16 16 17 17 18 19 21 22 23 25 26 28 31 35 39 41 45 50 51 49 52 59 60 62 66 63 60 63 64 63 62 61 61 63 65 66 65 63 62 60 59 58 53 50 48 42 36 34 36 38 37 36 34 33 31 29 27 25 24 23 25 26
Wind_Direction
287 287 287 287 286 285 284 283 282 282 282 282 281 281 279 278 277 278 279 280 280 278 273 268 263 258 254 250 245 242 240 237 230 225 225 223 222 226 227 222 220 222 224 224 221 222 224 225 223 221 223 225 224 225 227 227 224 216 208 196 199 215 193 163 155 159 169 170 173 168 158 163 157 147 150 139 149 157 156 155 147 164 167 167 158 126 132 191
286 285 285 285 284 283 283 281 280 280 279 279 279 279 279 277 275 275 275 276 276 276 274 269 264 260 256 253 247 242 240 241 237 228 226 225 223 225 225 223 222 222 223 222 221 222 221 223 224 221 219 220 222 223 225 229 229 223 219 212 205 216 206 177 166 169 181 181 177 176 168 162 149 138 143 140 148 160 151 143 142 163 167 168 163 137 131 203
284 284 283 283 282 281 280 280 278 277 276 275 275 276 276 276 274 272 271 271 272 272 272 269 264 261 258 254 250 245 241 242 241 231 228 228 224 225 224 221 221 222 222 219 218 218 216 216 219 218 217 218 219 219 222 227 230 228 223 220 214 219 214 183 166 167 178 179 174 182 182 164 141 135 144 145 147 151 147 138 137 152 160 162 168 149 135 173
284 283 282 281 280 279 278 277 276 275 274 273 272 272 272 272 272 270 268 267 269 270 269 268 265 261 258 256 252 248 243 242 242 234 231 234 228 225 224 219 220 222 222 221 219 218 218 216 217 218 220 221 220 219 221 225 230 229 223 222 215 217 214 185 168 170 177 176 170 180 189 164 139 135 141 146 147 148 149 147 140 143 150 149 167 164 143 154
285 284 283 282 280 279 278 276 275 274 273 272 271 270 269 269 268 268 267 265 265 266 266 266 265 261 258 256 253 249 246 243 244 239 234 235 231 227 223 220 221 223 224 224 223 223 223 222 221 222 225 227 228 223 220 224 231 232 228 225 217 218 212 187 179 179 178 178 172 176 182 167 144 139 142 150 156 156 153 157 143 128 134 140 158 177 153 154
285 284 283 282 281 280 278 277 275 274 272 271 270 269 268 267 266 266 265 264 263 262 263 263 263 262 258 256 254 251 248 244 243 242 235 233 232 229 226 223 224 225 227 227 227 227 227 226 225 225 229 231 232 228 226 227 232 235 232 225 218 217 212 194 187 183 181 187 185 180 177 173 156 142 144 153 158 158 151 148 137 123 121 128 145 176 164 160
285 284 284 283 282 281 279 278 276 274 273 271 269 268 266 265 264 264 263 263 261 259 260 260 260 261 259 255 254 252 250 245 241 241 238 234 233 233 231 228 226 227 228 229 229 229 229 229 228 227 228 229 229 230 232 232 234 237 234 227 220 216 212 198 188 187 187 194 202 198 188 181 166 147 148 154 154 155 149 141 132 122 115 115 129 153 166 168
288 287 285 284 283 281 280 278 277 275 274 272 270 268 266 265 263 262 262 261 260 258 257 257 257 258 258 256 253 252 251 247 240 241 240 236 235 234 234 232 228 227 225 225 225 224 223 224 225 225 227 227 226 228 229 229 232 238 238 231 224 217 213 201 191 194 195 195 203 208 200 191 173 155 156 156 154 158 152 146 133 120 115 112 115 130 154 172
292 290 289 287 286 284 282 280 278 276 275 273 271 269 267 266 264 262 260 259 259 258 256 255 254 255 256 256 254 252 251 248 242 241 240 237 235 234 234 232 229 228 225 222 222 221 220 220 221 221 223 224 223 225 225 222 227 235 236 232 226 220 213 204 198 201 200 194 199 205 200 193 179 162 161 160 163 168 161 154 139 126 120 114 109 111 129 163
295 294 292 291 289 287 285 283 281 279 277 275 272 270 268 267 265 263 260 258 257 257 256 254 252 252 253 254 254 252 250 248 244 241 240 237 236 235 235 232 229 228 227 225 221 220 218 219 219 217 217 218 218 221 219 214 219 228 232 231 228 226 218 206 203 206 201 194 198 206 202 193 183 164 159 165 171 173 165 156 145 132 123 113 108 103 102 125
298 296 294 292 291 289 287 286 283 281 280 277 275 272 270 268 266 264 262 260 257 255 254 254 252 250 250 251 251 250 249 248 245 243 241 238 236 236 236 233 229 228 227 226 222 219 218 218 219 218 217 218 219 220 214 207 214 225 230 230 229 233 227 212 208 209 204 201 200 208 210 196 182 167 159 167 175 177 171 161 152 137 127 114 104 99 98 104
300 298 296 294 293 291 289 287 285 284 282 280 277 274 272 269 267 265 264 261 259 256 254 253 252 250 248 248 247 247 248 248 246 244 241 238 236 234 234 233 230 228 226 224 222 219 219 220 221 221 220 220 221 221 213 207 213 222 228 228 228 235 235 221 217 214 206 207 206 212 216 195 181 176 166 165 168 176 184 174 162 143 131 120 106 96 94 98
301 299 297 295 294 293 291 289 287 285 284 281 279 277 275 272 269 267 265 262 260 257 256 254 252 250 248 247 246 244 246 247 244 241 240 237 236 234 234 232 230 229 228 227 226 223 221 220 221 221 220 220 221 221 215 211 215 221 227 226 226 234 235 228 226 221 211 212 213 215 214 197 189 188 175 169 166 170 181 180 168 148 134 125 110 97 91 93
300 298 297 295 294 293 291 290 288 286 285 283 281 278 277 274 272 269 266 263 260 258 257 255 253 250 248 247 246 244 243 244 242 241 240 239 238 237 236 234 232 230 229 229 229 228 227 224 223 222 222 221 221 221 216 214 216 220 225 224 226 233 232 230 231 223 217 217 214 211 212 209 203 193 182 176 172 171 176 178 173 158 141 130 115 100 89 83
300 298 296 295 293 292 290 289 287 286 285 283 282 280 278 276 274 271 269 265 261 259 257 255 254 251 249 248 247 244 242 242 242 241 241 240 239 240 238 236 234 231 229 229 229 229 228 228 228 227 226 225 225 224 218 216 218 222 226 225 227 233 228 231 234 226 222 221 215 208 216 220 209 196 190 182 176 176 177 176 175 169 155 140 123 105 90 77
300 298 296 294 293 291 289 287 286 285 284 283 281 280 279 277 275 273 270 266 263 261 257 255 254 252 251 249 247 245 243 241 241 240 240 240 239 239 240 238 236 235 233 232 231 230 228 227 228 228 226 226 228 228 224 221 220 223 228 226 228 231 225 230 234 228 226 224 217 210 222 226 209 198 197 191 181 177 181 179 174 175 168 152 135 114 93 77
301 299 297 295 293 291 289 287 285 283 282 281 280 279 278 276 275 273 271 267 264 262 259 256 254 253 251 249 247 246 245 243 241 239 238 238 238 238 240 241 240 238 237 235 233 232 231 228 227 227 228 228 229 229 229 226 224 228 232 228 228 227 222 228 233 229 228 228 221 215 225 227 209 199 199 194 184 178 185 184 177 178 174 161 145 123 100 82
304 302 299 297 295 292 290 287 285 283 281 279 278 277 276 275 274 273 271 267 265 262 260 257 254 252 251 249 246 246 247 245 242 239 237 236 237 238 238 238 238 237 235 235 233 232 232 230 228 228 228 229 231 234 238 238 233 234 236 233 230 227 222 226 231 232 232 231 224 217 222 226 216 206 201 196 188 183 190 191 186 184 177 166 153 133 111 90
307 305 302 299 297 294 292 289 286 284 282 280 278 276 275 273 272 271 270 267 265 262 260 257 254 252 250 249 247 246 247 247 244 240 237 235 235 237 237 236 237 237 235 234 234 233 232 231 230 229 230 234 240 246 251 247 236 232 233 231 228 226 222 223 228 232 233 233 228 218 219 225 220 209 204 200 193 191 198 199 191 184 178 168 158 144 121 99
309 307 304 302 299 296 294 291 288 285 283 281 278 276 274 272 271 269 268 267 264 262 260 257 254 252 249 247 246 245 246 247 245 241 238 234 233 234 236 236 236 237 237 236 235 235 234 231 230 230 233 238 243 244 243 237 232 231 230 228 226 223 219 218 223 228 231 234 233 223 219 222 218 208 203 199 196 200 205 201 190 181 176 167 162 153 129 108
310 308 306 304 301 299 296 293 290 287 284 281 279 277 274 272 270 268 268 268 265 261 259 257 254 252 250 247 245 244 243 245 245 243 239 235 233 233 233 235 235 237 239 238 236 235 234 231 228 227 230 230 230 229 228 226 227 228 227 227 226 222 217 215 220 225 230 233 234 229 220 216 215 210 204 200 199 206 206 196 188 178 171 166 164 159 138 119
312 310 309 307 305 302 300 297 294 290 287 283 279 276 274 271 269 266 264 266 266 264 260 257 254 251 249 247 244 242 241 242 243 243 240 235 233 233 233 234 234 234 236 237 236 235 234 232 227 226 228 227 226 225 222 218 219 222 223 222 221 219 216 215 219 223 229 232 232 232 224 213 214 212 208 203 197 201 199 189 185 179 171 165 161 157 145 130
313 312 311 310 308 306 304 302 299 295 292 287 283 279 276 273 269 266 261 259 262 263 262 259 256 253 249 246 243 242 240 239 240 240 239 237 234 233 232 233 233 232 232 235 237 237 236 234 228 226 227 227 226 226 223 219 216 218 219 217 214 213 213 215 218 222 228 229 227 232 228 216 215 215 212 203 192 194 194 187 189 185 174 169 167 163 155 142
316 315 314 314 312 310 309 307 305 302 298 293 289 285 281 277 273 268 263 259 257 258 258 258 257 255 251 248 244 241 240 240 239 239 238 237 235 233 232 232 233 232 231 232 236 237 236 230 223 224 226 226 227 226 225 223 220 219 219 214 208 209 210 212 216 222 227 228 224 229 231 222 218 219 217 205 195 197 197 194 195 189 180 180 179 173 166 155
319 318 317 317 316 314 313 312 310 308 305 301 296 290 286 282 278 272 267 262 259 257 255 254 254 253 252 250 246 244 242 241 241 239 237 236 236 235 233 231 231 231 231 231 232 234 233 227 222 224 224 223 225 226 225 225 222 221 222 215 207 205 206 209 214 218 224 226 223 225 231 227 222 222 219 208 202 202 202 202 198 191 189 187 180 175 171 164
321 319 318 317 316 314 313 312 311 310 307 304 301 296 292 288 284 278 271 266 263 260 257 254 253 252 250 248 246 245 243 242 242 240 237 235 236 236 235 233 232 231 230 230 230 231 229 226 223 225 224 220 221 223 223 224 223 221 220 216 209 204 204 207 212 216 221 224 223 226 230 228 225 224 219 213 208 205 206 205 199 194 195 190 180 178 175 170
320 318 316 315 313 311 309 307 306 304 302 300 299 299 296 292 289 285 278 271 267 264 261 257 254 252 249 247 245 244 243 242 242 241 238 235 234 235 236 235 234 232 230 230 229 228 226 225 223 224 224 221 220 220 221 223 223 219 213 213 210 205 203 206 211 217 221 223 223 227 232 230 227 225 221 219 211 207 210 207 200 198 197 192 187 186 180 174
318 317 315 314 314 312 308 305 301 299 297 295 295 296 295 293 292 292 287 279 272 266 263 260 256 253 250 247 245 243 242 241 241 240 239 236 233 233 234 234 234 232 231 231 230 228 225 225 225 225 225 224 222 220 222 224 222 214 209 214 211 206 204 205 211 217 219 223 223 225 232 234 231 225 224 225 216 215 217 208 202 200 197 195 193 193 189 182
317 316 315 317 319 317 313 308 304 300 296 292 290 290 291 290 289 290 289 285 280 271 265 262 258 253 250 248 245 243 242 241 240 238 238 237 233 230 231 232 231 230 230 231 231 228 225 224 225 226 225 224 222 220 222 224 221 211 209 214 211 208 206 204 210 214 216 223 224 221 229 237 235 224 223 227 221 223 221 207 204 200 197 198 194 196 199 195
316 315 317 321 323 321 319 315 311 306 300 293 288 286 286 285 285 286 284 285 284 279 272 267 261 255 251 249 246 243 241 240 240 237 236 236 233 228 228 229 230 229 227 229 230 227 224 223 224 224 223 221 219 218 220 223 221 212 210 212 210 209 208 206 210 211 215 225 225 219 225 237 240 227 222 227 219 218 218 207 205 203 202 204 195 193 200 203
316 315 319 323 323 322 322 323 319 312 308 302 294 288 284 282 282 282 281 282 281 278 276 273 269 263 256 251 249 246 243 240 240 237 234 234 232 227 226 226 227 227 226 226 228 227 223 222 222 222 221 219 218 217 217 218 217 213 211 211 211 210 209 208 210 211 218 227 225 219 222 235 242 232 221 225 212 207 214 206 206 208 207 207 197 191 195 197
316 317 319 321 320 319 319 325 327 321 318 315 307 299 293 288 285 283 282 281 278 276 274 272 271 268 263 258 254 251 248 244 241 238 234 233 232 228 225 224 224 225 225 224 225 225 223 223 222 221 220 218 218 217 216 215 214 212 211 211 212 211 210 209 211 214 222 229 225 219 222 232 243 237 219 220 208 199 208 205 205 207 202 199 194 191 193 193
317 317 318 316 315 314 313 317 323 323 322 321 317 311 306 301 295 291 288 285 282 279 275 270 267 265 264 261 258 256 254 250 245 241 237 233 232 230 226 224 224 225 225 224 223 223 222 222 221 220 219 219 219 218 216 216 214 212 211 211 213 214 213 212 214 217 224 229 225 219 223 234 243 240 220 216 207 195 201 204 201 199 193 189 183 180 188 194
317 316 316 314 311 308 306 309 313 314 314 315 314 312 309 306 302 298 294 289 287 285 279 271 264 261 260 259 257 255 254 253 250 246 242 236 233 231 227 224 223 224 225 224 223 222 221 221 221 220 219 218 219 219 218 217 217 216 214 214 216 219 220 219 219 221 224 229 227 220 224 234 240 238 224 215 212 201 198 200 198 195 189 182 179 178 180 188
318 316 315 314 310 305 301 302 303 303 304 306 307 306 305 303 301 299 296 293 290 287 283 277 267 259 256 255 253 252 251 251 251 249 246 241 236 232 228 225 222 222 224 224 223 222 220 221 221 220 219 219 219 219 218 217 217 217 215 216 217 219 223 225 224 225 228 231 230 225 228 236 238 237 228 214 212 208 202 200 200 200 197 191 187 186 186 188
320 318 316 314 311 306 300 297 295 296 298 300 300 300 299 299 297 295 294 293 290 284 281 279 273 261 254 253 251 248 247 247 248 248 247 245 240 235 230 226 223 222 223 223 223 222 220 219 220 220 220 219 219 218 217 217 217 217 215 216 218 218 222 226 226 227 230 233 233 230 233 240 241 239 233 218 211 210 206 202 203 206 206 203 199 194 194 193
321 318 315 311 309 307 302 297 294 292 295 297 297 296 295 295 294 293 292 290 287 282 276 274 274 265 255 251 249 246 243 242 243 244 245 244 241 237 232 227 224 223 223 223 222 221 220 219 218 218 218 217 217 218 217 216 216 218 218 218 218 219 220 223 224 225 228 232 231 230 233 239 241 239 235 227 217 215 211 203 201 204 208 209 206 200 197 196
322 318 314 311 309 307 305 301 297 293 293 293 293 293 293 293 294 294 294 290 284 279 273 269 270 267 257 249 246 244 240 238 238 240 241 241 240 238 233 229 227 224 223 224 222 222 221 218 217 217 217 216 216 216 217 216 215 217 218 217 219 220 219 220 221 221 224 228 229 227 230 235 237 235 234 231 223 219 218 208 200 201 206 211 211 206 199 193
323 319 317 315 314 312 310 307 302 298 295 292 291 292 294 297 298 297 294 290 284 278 273 269 267 267 261 250 244 242 239 235 234 235 238 238 237 237 234 230 228 226 225 224 223 222 221 218 216 216 216 216 215 213 214 216 216 216 215 215 217 220 220 221 224 224 224 229 229 226 228 232 234 234 235 233 225 221 223 219 207 202 204 208 213 211 203 196
326 322 322 323 320 316 314 312 308 303 299 296 295 297 299 299 299 298 295 291 286 279 274 270 266 265 263 254 244 241 239 235 232 232 234 235 234 235 235 232 229 229 228 225 224 223 222 219 216 214 216 215 214 212 212 213 214 215 215 216 216 217 217 218 222 224 225 230 231 229 228 230 231 234 236 234 226 219 221 222 216 207 201 200 205 208 207 204
329 326 327 327 323 319 318 316 313 308 304 302 301 301 302 301 300 299 296 291 286 279 274 271 268 265 262 256 246 239 236 234 232 230 231 233 233 233 234 232 230 230 230 229 226 223 223 221 216 213 215 215 213 212 211 210 212 213 215 217 216 216 217 216 218 219 221 226 229 229 229 226 225 229 233 234 227 216 215 219 218 212 203 196 196 200 205 207
332 331 332 331 326 324 324 322 319 314 310 308 307 306 305 305 303 300 297 293 288 282 276 273 271 267 260 254 247 239 234 233 231 230 229 231 231 231 231 231 230 230 230 231 229 225 224 223 218 213 213 215 213 211 210 209 211 212 214 216 216 217 217 218 219 219 220 223 225 228 228 222 219 224 228 231 228 211 207 213 215 212 207 201 198 197 198 200
333 333 334 333 329 326 326 325 322 318 315 313 312 311 309 308 305 302 300 297 292 287 282 278 275 268 258 252 247 239 234 232 230 229 229 229 229 229 228 229 229 230 230 231 231 227 225 225 221 214 212 214 213 209 209 209 210 211 213 215 216 216 217 218 218 219 221 223 224 227 226 215 211 218 221 225 227 215 205 207 211 213 211 208 207 205 202 200
334 332 332 333 330 327 326 326 323 320 319 317 316 315 313 310 307 306 304 301 296 291 289 287 280 269 258 254 250 240 234 233 231 229 229 227 228 228 227 226 228 229 230 230 231 229 226 226 224 216 210 213 213 209 207 208 208 209 211 213 214 216 217 218 218 219 221 222 223 226 223 211 205 213 216 219 223 220 210 204 207 213 216 215 215 214 212 207
335 333 332 332 331 327 326 326 324 322 321 321 320 317 315 313 311 311 309 305 300 296 296 294 285 272 263 258 253 242 235 233 232 231 229 228 227 227 226 226 226 227 229 230 230 230 228 226 225 220 211 210 213 209 206 207 208 207 209 211 212 214 216 218 219 220 220 219 221 223 219 209 202 207 211 215 217 217 210 201 203 209 212 213 213 214 214 211
337 336 334 334 333 329 326 327 326 324 323 324 322 319 318 317 316 316 313 309 306 302 300 296 287 276 266 257 251 246 240 236 235 234 232 230 229 228 227 226 226 226 228 229 230 230 229 227 226 224 215 209 211 210 207 208 208 207 208 210 211 212 215 217 219 220 220 219 220 221 215 203 196 200 204 207 208 208 201 197 203 208 208 209 209 209 210 209
339 337 336 337 337 332 330 331 330 326 325 326 326 324 322 321 320 319 316 313 310 305 302 296 288 281 272 262 256 254 249 244 242 240 237 235 233 230 229 228 227 226 226 228 230 230 230 228 227 227 219 211 210 210 208 208 209 207 208 210 211 211 214 217 219 220 221 220 220 219 211 194 191 196 197 196 197 197 194 194 203 208 209 209 208 207 207 206
341 338 338 340 340 336 334 333 332 329 328 330 330 329 327 325 324 321 317 316 313 308 305 300 292 288 281 273 268 264 260 256 252 250 247 244 241 237 233 231 230 227 226 227 228 229 231 229 227 228 224 214 210 210 209 208 208 208 207 208 210 211 213 216 218 219 220 220 219 218 208 190 189 196 190 185 189 192 191 194 201 207 210 211 210 208 208 207
344 341 341 344 344 342 338 337 336 334 333 334 335 334 332 330 327 323 319 317 316 314 310 305 297 292 287 281 274 268 264 260 258 260 259 256 253 248 241 237 235 231 228 226 226 227 229 230 228 227 225 217 211 210 209 208 208 207 207 207 209 212 213 215 218 218 220 220 219 217 207 189 189 196 189 185 189 191 192 195 201 208 211 212 211 208 208 209
348 345 346 348 348 347 345 343 341 338 337 337 339 339 337 335 332 329 325 319 316 315 311 306 299 292 287 282 277 274 270 266 264 265 264 263 263 259 251 245 241 236 230 228 227 225 225 227 228 228 226 220 214 211 209 208 207 206 207 207 209 212 213 214 216 217 220 221 219 216 207 191 187 193 189 188 192 192 195 199 203 208 210 209 208 206 208 213
353 351 351 351 352 353 353 350 346 342 339 339 342 344 344 341 337 336 334 328 320 314 309 307 301 292 286 281 276 275 274 273 270 267 264 263 263 263 259 253 248 242 234 230 229 227 223 223 226 228 226 221 216 212 209 208 207 205 206 208 209 212 212 213 215 216 219 221 217 214 208 194 186 191 188 188 192 193 195 199 203 207 207 204 204 206 211 215
357 357 357 358 359 360 359 354 350 345 342 340 343 349 350 348 344 341 339 337 330 318 310 312 310 298 287 281 277 275 274 273 270 267 265 262 261 261 260 257 253 247 241 234 230 228 224 221 222 226 226 221 217 214 210 208 207 204 206 209 209 211 212 213 214 215 218 220 216 212 209 199 193 193 189 188 191 190 191 196 200 204 203 199 201 206 212 217
Height
5864 5863 5863 5863 5862 5862 5862 5862 5861 5861 5860 5860 5860 5860 5860 5860 5860 5860 5859 5859 5859 5859 5860 5861 5861 5861 5861 5861 5862 5862 5863 5863 5864 5865 5866 5867 5868 5868 5869 5871 5872 5873 5874 5875 5876 5877 5878 5879 5879 5880 5881 5882 5883 5884 5884 5885 5886 5888 5889 5890 5891 5892 5893 5893 5894 5895 5895 5895 5896 5896 5896 5895 5895 5895 5895 5895 5896 5896 5896 5897 5897 5897 5897 5897 5898 5898 5900 5900
5862 5861 5861 5861 5860 5860 5860 5860 5859 5859 5859 5858 5858 5858 5858 5858 5858 5858 5858 5857 5857 5857 5858 5859 5859 5859 5860 5860 5860 5861 5861 5861 5862 5864 5865 5865 5865 5866 5868 5870 5871 5872 5872 5873 5874 5875 5876 5877 5878 5879 5880 5881 5882 5883 5884 5884 5885 5887 5888 5890 5891 5892 5892 5893 5893 5894 5895 5895 5895 5895 5895 5895 5895 5896 5896 5895 5896 5896 5897 5897 5897 5898 5898 5898 5898 5897 5899 5901
5859 5859 5859 5858 5858 5858 5857 5857 5857 5857 5857 5856 5856 5856 5856 5856 5856 5856 5856 5855 5855 5855 5855 5856 5857 5857 5858 5858 5859 5859 5860 5860 5861 5862 5863 5862 5864 5865 5866 5868 5869 5869 5870 5871 5872 5873 5873 5874 5875 5877 5878 5879 5880 5882 5883 5883 5884 5886 5888 5889 5890 5891 5892 5892 5893 5893 5895 5895 5895 5895 5895 5895 5895 5896 5896 5895 5896 5896 5897 5897 5897 5898 5898 5898 5898 5897 5899 5901
5857 5856 5856 5856 5855 5855 5855 5854 5854 5854 5854 5854 5854 5854 5854 5854 5853 5853 5853 5853 5853 5853 5853 5853 5854 5855 5855 5856 5857 5857 5858 5858 5859 5860 5861 5861 5862 5863 5864 5866 5865 5866 5867 5869 5870 5871 5872 5873 5875 5876 5877 5878 5880 5881 5882 5882 5883 5885 5886 5888 5889 5891 5891 5892 5892 5893 5894 5895 5895 5895 5895 5895 5895 5896 5896 5896 5896 5897 5898 5898 5898 5898 5898 5898 5898 5898 5898 5900
5854 5853 5853 5853 5852 5852 5852 5851 5851 5851 5851 5851 5851 5851 5851 5851 5851 5851 5851 5851 5851 5851 5851 5851 5852 5852 5853 5853 5854 5855 5856 5856 5857 5859 5860 5859 5860 5861 5862 5863 5862 5864 5865 5867 5869 5870 5872 5874 5875 5876 5877 5878 5879 5880 5881 5881 5882 5883 5885 5887 5888 5889 5890 5891 5891 5892 5893 5894 5894 5895 5895 5895 5895 5896 5896 5897 5897 5898 5898 5898 5898 5898 5898 5898 5898 5899 5898 5900
5851 5850 5850 5849 5849 5849 5848 5848 5848 5848 5848 5848 5848 5848 5848 5848 5848 5848 5848 5848 5849 5849 5849 5849 5849 5849 5850 5851 5851 5852 5853 5854 5856 5856 5857 5857 5858 5859 5859 5860 5861 5862 5864 5866 5868 5869 5871 5873 5874 5875 5876 5877 5879 5880 5880 5880 5881 5882 5883 5885 5887 5888 5889 5889 5890 5891 5893 5894 5894 5894 5895 5895 5895 5896 5896 5897 5897 5898 5898 5898 5898 5898 5898 5898 5898 5899 5899 5900
5848 5847 5847 5846 5846 5845 5845 5844 5844 5844 5844 5844 5844 5844 5845 5845 5845 5845 5845 5845 5846 5846 5847 5847 5847 5847 5847 5848 5849 5850 5850 5852 5854 5853 5853 5855 5856 5857 5857 5858 5859 5861 5862 5864 5866 5868 5870 5871 5873 5874 5874 5875 5877 5878 5878 5879 5880 5880 5882 5883 5885 5886 5887 5888 5889 5890 5892 5893 5894 5894 5894 5894 5894 5895 5896 5896 5897 5897 5898 5898 5898 5898 5898 5898 5899 5899 5899 5900
5845 5844 5844 5843 5842 5842 5841 5841 5841 5840 5840 5840 5840 5841 5841 5841 5841 5842 5842 5842 5842 5843 5844 5844 5845 5844 5845 5845 5846 5847 5847 5849 5851 5850 5851 5853 5854 5855 5855 5856 5857 5859 5860 5862 5863 5865 5867 5869 5871 5871 5872 5874 5875 5875 5876 5878 5879 5879 5880 5880 5882 5884 5885 5886 5887 5888 5890 5892 5894 5895 5894 5893 5893 5894 5895 5896 5897 5897 5898 5898 5898 5898 5898 5898 5898 5899 5900 5900
5843 5842 5841 5840 5839 5839 5838 5837 5837 5837 5837 5836 5836 5837 5837 5837 5837 5838 5838 5838 5839 5839 5840 5841 5842 5842 5842 5843 5843 5844 5844 5845 5847 5847 5848 5850 5851 5852 5852 5853 5855 5856 5857 5858 5860 5862 5865 5867 5868 5869 5870 5870 5871 5872 5873 5876 5878 5877 5876 5877 5879 5881 5883 5885 5886 5886 5888 5891 5893 5894 5894 5894 5894 5894 5895 5896 5897 5898 5898 5898 5898 5898 5898 5898 5898 5899 5899 5900
5840 5839 5838 5838 5837 5836 5835 5834 5834 5834 5833 5832 5832 5832 5833 5833 5833 5833 5834 5835 5835 5835 5836 5838 5839 5840 5840 5840 5841 5841 5841 5842 5843 5844 5846 5847 5848 5849 5849 5851 5852 5853 5854 5856 5858 5860 5862 5863 5863 5864 5865 5866 5867 5868 5871 5875 5876 5874 5872 5874 5876 5878 5880 5883 5885 5885 5887 5889 5891 5894 5894 5894 5893 5893 5894 5896 5897 5898 5898 5898 5898 5898 5898 5898 5898 5899 5899 5900
5838 5837 5836 5835 5834 5833 5832 5831 5831 5830 5830 5829 5828 5829 5829 5829 5829 5829 5829 5830 5831 5832 5833 5833 5835 5836 5837 5837 5837 5837 5837 5839 5840 5841 5842 5843 5845 5845 5846 5847 5849 5850 5851 5853 5855 5856 5857 5857 5858 5859 5861 5863 5865 5866 5870 5873 5872 5870 5870 5872 5875 5874 5877 5882 5884 5885 5887 5888 5890 5892 5892 5893 5893 5893 5894 5895 5897 5898 5898 5898 5898 5898 5897 5897 5898 5899 5899 5900
5835 5834 5833 5832 5831 5830 5829 5828 5827 5827 5826 5825 5825 5825 5825 5825 5825 5825 5825 5826 5826 5827 5829 5830 5831 5831 5833 5833 5832 5833 5834 5836 5838 5838 5839 5839 5840 5841 5842 5843 5845 5846 5848 5850 5850 5851 5853 5854 5855 5858 5860 5861 5863 5865 5868 5869 5868 5868 5868 5871 5873 5872 5875 5880 5883 5885 5887 5888 5889 5890 5892 5892 5893 5893 5893 5894 5896 5898 5898 5898 5898 5898 5897 5897 5898 5899 5899 5900
5831 5830 5830 5829 5828 5827 5826 5824 5824 5823 5823 5822 5821 5821 5821 5821 5821 5821 5821 5821 5821 5823 5824 5825 5826 5827 5829 5828 5827 5830 5831 5832 5834 5834 5834 5835 5837 5837 5838 5840 5841 5843 5845 5846 5846 5848 5849 5851 5853 5855 5856 5858 5859 5862 5865 5866 5865 5865 5867 5870 5871 5870 5874 5878 5880 5883 5886 5887 5888 5891 5892 5892 5893 5893 5893 5894 5895 5896 5897 5898 5898 5898 5897 5897 5898 5899 5899 5900
5828 5827 5826 5825 5824 5823 5822 5821 5820 5819 5818 5817 5817 5817 5817 5817 5817 5817 5816 5816 5817 5819 5820 5821 5821 5823 5824 5822 5822 5826 5828 5828 5828 5829 5831 5833 5834 5834 5835 5836 5838 5839 5841 5842 5843 5845 5847 5849 5850 5851 5852 5855 5856 5858 5862 5863 5863 5864 5865 5867 5869 5870 5874 5876 5877 5880 5883 5885 5888 5891 5892 5891 5892 5893 5893 5893 5894 5895 5897 5897 5898 5898 5897 5897 5898 5899 5900 5900
5824 5822 5821 5820 5820 5819 5818 5816 5816 5815 5814 5813 5812 5812 5813 5812 5812 5812 5811 5811 5813 5814 5815 5816 5817 5818 5818 5817 5818 5821 5823 5823 5825 5827 5829 5830 5831 5831 5832 5833 5834 5835 5836 5837 5839 5842 5844 5846 5848 5849 5852 5853 5853 5854 5858 5860 5861 5862 5862 5865 5868 5871 5874 5874 5875 5878 5881 5883 5886 5890 5891 5890 5891 5892 5892 5892 5893 5894 5896 5897 5897 5898 5897 5897 5897 5898 5899 5900
5819 5817 5816 5815 5815 5814 5813 5811 5811 5810 5809 5808 5807 5807 5808 5807 5807 5807 5805 5806 5808 5809 5810 5811 5812 5813 5813 5813 5814 5815 5817 5819 5821 5824 5825 5826 5827 5828 5828 5829 5830 5831 5833 5835 5836 5838 5840 5843 5845 5847 5849 5849 5850 5852 5856 5857 5858 5859 5861 5866 5868 5870 5873 5873 5873 5876 5878 5880 5883 5887 5890 5890 5890 5891 5891 5892 5892 5893 5895 5896 5897 5897 5898 5897 5897 5898 5899 5900
5814 5812 5810 5809 5809 5808 5807 5806 5805 5804 5803 5802 5801 5801 5802 5801 5801 5800 5799 5800 5802 5804 5805 5806 5808 5808 5808 5809 5810 5810 5811 5815 5817 5819 5821 5822 5823 5824 5824 5826 5827 5829 5830 5831 5832 5835 5837 5840 5842 5844 5845 5846 5848 5850 5851 5853 5857 5859 5862 5866 5867 5869 5871 5871 5872 5874 5875 5877 5881 5884 5887 5888 5889 5889 5890 5891 5891 5892 5893 5895 5895 5896 5897 5897 5897 5897 5898 5900
5808 5806 5804 5803 5802 5801 5800 5799 5799 5798 5797 5796 5795 5795 5795 5795 5795 5794 5792 5793 5796 5798 5799 5801 5803 5803 5803 5805 5806 5806 5806 5809 5812 5814 5815 5817 5819 5819 5820 5822 5822 5823 5824 5826 5829 5832 5834 5837 5839 5840 5841 5843 5845 5847 5849 5854 5859 5861 5863 5865 5866 5867 5869 5870 5872 5872 5873 5874 5877 5881 5884 5886 5887 5887 5889 5889 5889 5890 5891 5893 5894 5895 5897 5897 5897 5896 5897 5899
5803 5801 5798 5796 5796 5795 5793 5792 5792 5791 5790 5790 5789 5788 5788 5788 5788 5787 5785 5786 5789 5791 5792 5795 5797 5797 5798 5799 5801 5802 5802 5803 5806 5807 5809 5812 5813 5814 5815 5816 5817 5818 5820 5822 5826 5828 5831 5834 5835 5836 5840 5844 5846 5849 5852 5856 5858 5859 5860 5862 5864 5865 5867 5869 5870 5870 5870 5871 5874 5878 5881 5883 5884 5886 5887 5887 5888 5889 5889 5891 5893 5895 5896 5896 5897 5896 5896 5898
5797 5795 5792 5790 5789 5788 5787 5785 5785 5784 5784 5783 5782 5782 5781 5780 5781 5781 5779 5778 5781 5784 5785 5788 5790 5791 5793 5794 5796 5798 5798 5797 5798 5800 5803 5806 5808 5808 5809 5811 5812 5814 5816 5820 5823 5825 5827 5828 5830 5837 5843 5845 5846 5847 5849 5851 5853 5855 5857 5859 5861 5863 5866 5868 5868 5868 5867 5868 5872 5876 5878 5880 5882 5883 5885 5886 5886 5887 5888 5890 5892 5894 5895 5895 5897 5896 5895 5897
5791 5789 5786 5784 5782 5781 5779 5778 5777 5776 5776 5776 5776 5775 5774 5774 5774 5774 5773 5770 5772 5777 5779 5780 5783 5784 5786 5788 5790 5792 5793 5792 5791 5793 5797 5800 5801 5802 5803 5805 5807 5810 5814 5817 5818 5819 5820 5822 5830 5839 5841 5840 5841 5842 5844 5846 5849 5851 5853 5856 5858 5861 5864 5865 5865 5865 5865 5866 5870 5873 5875 5879 5881 5882 5882 5883 5884 5886 5888 5890 5891 5892 5893 5894 5896 5896 5895 5896
5785 5783 5780 5777 5776 5774 5772 5771 5770 5768 5768 5768 5768 5768 5767 5767 5766 5768 5770 5765 5762 5768 5771 5772 5775 5776 5779 5782 5784 5786 5787 5786 5785 5786 5790 5793 5795 5797 5798 5800 5803 5807 5811 5811 5812 5814 5815 5821 5832 5837 5835 5835 5836 5837 5839 5842 5844 5846 5848 5851 5855 5860 5862 5863 5863 5864 5863 5864 5867 5868 5871 5876 5878 5879 5879 5880 5884 5886 5887 5888 5889 5890 5891 5893 5894 5896 5896 5895
5779 5777 5775 5772 5769 5768 5766 5764 5762 5761 5760 5760 5760 5760 5759 5760 5759 5760 5763 5761 5757 5759 5763 5764 5766 5768 5772 5774 5776 5778 5779 5779 5778 5780 5783 5786 5789 5791 5792 5795 5798 5802 5804 5805 5807 5810 5814 5824 5832 5831 5828 5830 5832 5833 5836 5838 5840 5842 5844 5848 5853 5858 5860 5861 5862 5861 5859 5861 5864 5865 5867 5872 5874 5875 5876 5879 5882 5883 5884 5885 5886 5887 5888 5890 5891 5893 5894 5894
5774 5772 5770 5767 5764 5762 5760 5758 5756 5754 5752 5752 5751 5752 5751 5751 5752 5752 5754 5755 5754 5753 5755 5757 5757 5760 5763 5766 5769 5771 5771 5772 5772 5774 5777 5780 5782 5784 5786 5790 5792 5795 5798 5801 5803 5805 5812 5822 5825 5822 5822 5826 5828 5830 5833 5835 5837 5839 5841 5845 5851 5855 5858 5860 5859 5857 5857 5859 5861 5862 5863 5867 5871 5872 5876 5878 5878 5878 5880 5881 5881 5884 5885 5886 5888 5890 5892 5892
5770 5767 5765 5763 5759 5757 5755 5753 5751 5748 5746 5744 5743 5743 5744 5743 5743 5744 5746 5748 5748 5747 5749 5750 5749 5751 5755 5758 5761 5762 5764 5765 5765 5768 5772 5774 5776 5778 5782 5784 5786 5789 5793 5796 5798 5800 5807 5816 5818 5816 5818 5822 5824 5826 5829 5832 5835 5837 5839 5844 5849 5852 5855 5856 5855 5854 5855 5856 5858 5859 5859 5862 5867 5870 5874 5876 5874 5875 5877 5878 5880 5882 5883 5884 5887 5890 5891 5892
5766 5763 5760 5758 5756 5753 5751 5749 5747 5745 5742 5739 5737 5736 5736 5736 5735 5736 5738 5740 5740 5740 5742 5743 5743 5744 5748 5751 5753 5755 5756 5756 5757 5760 5765 5768 5771 5774 5776 5778 5781 5784 5787 5789 5791 5794 5802 5809 5811 5811 5813 5817 5819 5822 5826 5829 5831 5834 5839 5844 5846 5847 5849 5851 5851 5851 5851 5853 5856 5855 5854 5858 5862 5866 5871 5872 5872 5873 5875 5876 5879 5880 5881 5884 5886 5888 5890 5891
5762 5759 5756 5754 5752 5750 5747 5745 5744 5742 5739 5736 5733 5732 5731 5730 5729 5729 5731 5733 5734 5734 5734 5735 5736 5737 5741 5743 5745 5748 5747 5747 5750 5753 5757 5763 5766 5767 5770 5773 5776 5779 5781 5782 5783 5788 5797 5802 5804 5806 5808 5812 5814 5818 5823 5826 5828 5834 5839 5840 5840 5841 5844 5846 5848 5847 5848 5851 5852 5850 5850 5853 5856 5862 5867 5868 5869 5871 5873 5875 5877 5878 5880 5883 5885 5886 5888 5890
5758 5755 5752 5750 5748 5746 5743 5741 5739 5737 5735 5733 5731 5730 5728 5726 5725 5724 5725 5726 5727 5728 5727 5728 5730 5731 5734 5736 5738 5739 5739 5741 5744 5746 5750 5756 5759 5761 5764 5766 5769 5773 5775 5775 5778 5785 5793 5798 5800 5802 5804 5808 5813 5818 5822 5822 5825 5832 5835 5833 5835 5837 5839 5842 5843 5843 5845 5846 5845 5846 5847 5846 5851 5859 5863 5863 5866 5868 5871 5874 5875 5877 5879 5881 5883 5885 5887 5889
5754 5751 5748 5746 5744 5741 5738 5736 5734 5733 5731 5728 5727 5726 5725 5724 5722 5721 5721 5721 5721 5722 5722 5723 5724 5726 5727 5728 5730 5731 5733 5734 5736 5740 5744 5748 5752 5755 5757 5758 5761 5764 5767 5770 5774 5781 5789 5792 5794 5796 5800 5806 5812 5816 5817 5817 5822 5828 5829 5828 5831 5832 5833 5836 5835 5837 5840 5836 5836 5843 5844 5841 5845 5855 5858 5858 5864 5868 5870 5872 5873 5875 5877 5878 5881 5884 5886 5887
5750 5747 5745 5743 5740 5737 5734 5731 5730 5728 5727 5724 5723 5722 5722 5720 5719 5718 5717 5717 5717 5717 5718 5719 5719 5721 5721 5721 5722 5724 5726 5727 5728 5733 5738 5739 5744 5747 5748 5750 5753 5756 5761 5764 5768 5775 5782 5785 5786 5790 5796 5802 5806 5809 5810 5812 5818 5822 5823 5823 5825 5826 5828 5830 5830 5833 5833 5826 5831 5841 5842 5838 5839 5847 5853 5856 5863 5868 5869 5871 5872 5873 5875 5876 5879 5881 5883 5886
5746 5743 5741 5740 5737 5734 5731 5728 5725 5724 5723 5721 5719 5718 5717 5716 5715 5714 5713 5713 5713 5713 5714 5715 5715 5716 5716 5717 5716 5717 5719 5721 5723 5727 5730 5731 5735 5738 5740 5742 5745 5749 5754 5759 5763 5769 5774 5776 5780 5785 5790 5795 5798 5800 5802 5806 5811 5815 5816 5817 5819 5820 5823 5824 5825 5827 5823 5821 5831 5839 5840 5836 5832 5840 5852 5856 5862 5866 5867 5870 5871 5872 5875 5876 5877 5878 5880 5883
5742 5739 5738 5736 5733 5731 5728 5725 5723 5721 5720 5718 5716 5715 5714 5712 5711 5710 5709 5708 5707 5708 5710 5711 5711 5711 5711 5712 5712 5712 5713 5715 5717 5720 5722 5724 5726 5728 5731 5734 5738 5743 5747 5752 5756 5761 5766 5770 5774 5778 5783 5787 5790 5792 5795 5799 5802 5806 5809 5810 5812 5814 5816 5817 5818 5818 5817 5820 5830 5836 5836 5831 5826 5837 5850 5854 5858 5863 5865 5869 5870 5871 5874 5875 5876 5878 5879 5881
5738 5735 5734 5732 5729 5727 5725 5723 5721 5719 5717 5716 5714 5713 5711 5709 5708 5706 5706 5704 5702 5703 5705 5705 5706 5706 5705 5707 5708 5708 5709 5709 5711 5713 5715 5717 5718 5720 5724 5728 5734 5737 5740 5745 5748 5753 5760 5764 5767 5772 5777 5781 5783 5786 5790 5793 5796 5799 5802 5805 5807 5808 5810 5812 5813 5815 5817 5820 5827 5833 5833 5827 5824 5835 5847 5851 5856 5861 5863 5867 5868 5869 5871 5873 5874 5876 5877 5879
5734 5732 5730 5728 5726 5724 5721 5719 5717 5716 5714 5713 5711 5710 5708 5706 5705 5703 5702 5701 5699 5699 5699 5699 5700 5700 5699 5700 5703 5705 5705 5705 5706 5707 5708 5711 5712 5713 5717 5723 5728 5731 5734 5738 5741 5746 5752 5756 5761 5766 5770 5774 5778 5782 5787 5791 5794 5798 5802 5804 5805 5806 5809 5812 5813 5814 5817 5819 5824 5831 5828 5821 5823 5833 5843 5850 5854 5858 5861 5864 5866 5868 5868 5870 5871 5871 5872 5875
5731 5728 5725 5724 5722 5720 5718 5716 5714 5712 5710 5709 5708 5706 5704 5703 5701 5700 5699 5697 5696 5695 5694 5693 5693 5694 5693 5694 5696 5699 5700 5700 5701 5702 5703 5704 5705 5707 5711 5716 5720 5724 5728 5730 5734 5739 5745 5752 5757 5760 5764 5769 5774 5779 5784 5787 5790 5794 5798 5798 5800 5805 5809 5811 5812 5814 5817 5817 5821 5826 5822 5818 5824 5833 5841 5847 5851 5854 5858 5861 5864 5866 5867 5867 5868 5869 5869 5870
5727 5724 5721 5718 5716 5715 5714 5712 5710 5708 5706 5705 5703 5702 5700 5699 5697 5696 5694 5693 5691 5690 5689 5688 5687 5688 5687 5688 5690 5692 5695 5696 5696 5697 5698 5698 5699 5701 5705 5709 5713 5717 5720 5722 5727 5732 5738 5747 5752 5755 5760 5766 5769 5772 5776 5781 5785 5788 5790 5792 5799 5805 5805 5807 5810 5813 5815 5814 5816 5822 5820 5819 5826 5832 5838 5843 5847 5851 5854 5858 5861 5864 5865 5865 5866 5868 5869 5869
5724 5720 5717 5714 5712 5710 5709 5707 5706 5704 5703 5701 5699 5697 5696 5694 5692 5691 5689 5687 5685 5684 5684 5682 5681 5681 5681 5682 5684 5686 5688 5690 5691 5692 5692 5693 5693 5695 5699 5702 5706 5710 5713 5716 5720 5724 5731 5741 5747 5750 5754 5758 5762 5766 5771 5776 5780 5783 5787 5794 5799 5799 5799 5802 5806 5808 5809 5808 5811 5817 5818 5818 5824 5829 5834 5840 5845 5848 5851 5855 5859 5862 5863 5864 5865 5867 5868 5869
5720 5716 5713 5710 5708 5706 5704 5703 5701 5700 5698 5696 5694 5692 5690 5689 5687 5685 5684 5682 5680 5678 5677 5676 5675 5675 5675 5676 5678 5679 5682 5684 5686 5686 5686 5687 5688 5689 5693 5696 5699 5703 5706 5709 5713 5717 5726 5735 5740 5744 5748 5752 5756 5761 5765 5771 5776 5780 5787 5792 5791 5791 5794 5798 5798 5801 5803 5802 5805 5812 5814 5815 5820 5825 5831 5837 5842 5846 5849 5853 5856 5859 5860 5863 5865 5867 5867 5868
5715 5712 5709 5706 5704 5701 5699 5698 5696 5694 5693 5690 5689 5687 5685 5683 5681 5680 5678 5676 5674 5673 5671 5670 5670 5669 5669 5670 5671 5673 5675 5678 5680 5680 5680 5682 5682 5684 5687 5690 5693 5697 5699 5703 5707 5712 5719 5727 5732 5738 5743 5746 5750 5754 5761 5768 5773 5777 5780 5783 5783 5786 5792 5794 5795 5799 5800 5799 5803 5809 5810 5811 5817 5824 5829 5834 5839 5844 5846 5849 5853 5856 5859 5861 5864 5866 5866 5867
5711 5708 5705 5703 5700 5697 5695 5693 5692 5690 5688 5686 5684 5682 5680 5678 5675 5673 5672 5670 5668 5667 5665 5664 5664 5663 5662 5663 5665 5666 5668 5671 5673 5674 5674 5675 5677 5680 5682 5685 5688 5691 5693 5697 5701 5707 5713 5718 5726 5733 5737 5741 5745 5750 5757 5764 5768 5770 5773 5775 5777 5781 5786 5789 5790 5794 5797 5798 5801 5806 5807 5810 5818 5824 5826 5831 5836 5840 5843 5846 5849 5853 5856 5859 5861 5863 5865 5866
5707 5705 5703 5700 5696 5694 5692 5690 5688 5686 5684 5682 5680 5678 5675 5672 5670 5667 5666 5664 5662 5660 5659 5658 5657 5656 5656 5656 5658 5660 5662 5664 5666 5667 5669 5670 5673 5676 5678 5680 5683 5685 5688 5691 5696 5702 5706 5710 5719 5727 5730 5735 5740 5746 5752 5756 5759 5763 5766 5769 5774 5778 5780 5782 5783 5788 5792 5793 5796 5800 5802 5808 5817 5821 5824 5828 5832 5836 5840 5842 5845 5849 5852 5855 5858 5860 5862 5864
5704 5702 5700 5697 5693 5690 5688 5686 5685 5682 5680 5678 5676 5673 5670 5668 5665 5662 5660 5658 5656 5654 5652 5651 5650 5649 5649 5649 5651 5653 5655 5656 5658 5661 5663 5665 5668 5671 5673 5675 5677 5680 5683 5685 5690 5696 5700 5703 5712 5721 5725 5731 5738 5743 5746 5749 5753 5757 5761 5765 5770 5773 5775 5778 5781 5786 5789 5788 5792 5796 5797 5805 5815 5819 5822 5826 5828 5832 5836 5838 5841 5845 5848 5851 5854 5856 5859 5861
5701 5699 5697 5694 5691 5688 5685 5683 5681 5679 5677 5674 5672 5669 5666 5663 5661 5658 5655 5653 5650 5648 5646 5644 5643 5643 5643 5643 5644 5646 5647 5649 5652 5656 5658 5661 5662 5665 5668 5670 5672 5675 5677 5680 5684 5689 5694 5698 5705 5716 5723 5728 5734 5738 5740 5744 5749 5752 5756 5760 5763 5766 5769 5773 5778 5783 5784 5784 5789 5792 5793 5803 5814 5817 5820 5823 5825 5828 5832 5835 5838 5841 5844 5847 5850 5852 5855 5858
5699 5696 5693 5691 5688 5685 5682 5680 5677 5675 5673 5670 5667 5665 5662 5659 5656 5653 5651 5648 5645 5643 5640 5639 5638 5637 5637 5638 5638 5640 5641 5644 5647 5650 5652 5655 5657 5659 5662 5664 5667 5669 5671 5674 5678 5682 5688 5692 5699 5710 5719 5722 5726 5731 5734 5739 5742 5745 5749 5752 5756 5761 5766 5771 5775 5777 5778 5782 5788 5789 5792 5803 5813 5815 5816 5819 5821 5824 5827 5831 5834 5837 5839 5843 5845 5848 5851 5853
5697 5693 5690 5688 5685 5682 5679 5677 5674 5671 5669 5666 5664 5661 5658 5655 5652 5649 5646 5644 5641 5638 5636 5634 5633 5632 5632 5633 5634 5635 5637 5639 5642 5644 5646 5649 5651 5654 5656 5658 5661 5664 5666 5669 5672 5677 5682 5686 5692 5701 5710 5714 5718 5723 5727 5730 5733 5737 5742 5747 5752 5758 5763 5767 5771 5771 5774 5781 5785 5785 5792 5804 5810 5811 5813 5815 5817 5820 5824 5827 5830 5832 5835 5838 5840 5843 5846 5848
5694 5691 5687 5685 5682 5679 5676 5674 5671 5668 5665 5663 5660 5657 5654 5650 5647 5645 5642 5640 5637 5634 5632 5631 5630 5629 5629 5630 5630 5631 5633 5635 5637 5639 5641 5643 5646 5648 5650 5653 5655 5658 5661 5663 5667 5672 5676 5680 5685 5692 5702 5710 5714 5717 5720 5723 5727 5733 5738 5743 5748 5754 5758 5762 5764 5767 5774 5780 5780 5783 5793 5803 5805 5807 5809 5811 5814 5817 5821 5824 5826 5829 5832 5834 5836 5838 5840 5843
5691 5687 5684 5682 5679 5675 5672 5670 5668 5664 5661 5659 5656 5653 5650 5647 5644 5641 5638 5636 5634 5631 5630 5629 5628 5627 5627 5627 5628 5629 5630 5632 5633 5634 5636 5638 5640 5642 5645 5647 5649 5653 5657 5659 5662 5667 5669 5674 5679 5685 5695 5705 5709 5712 5716 5719 5723 5729 5734 5739 5744 5749 5753 5756 5761 5767 5773 5776 5777 5783 5794 5800 5801 5803 5806 5808 5811 5814 5817 5821 5823 5825 5828 5830 5832 5834 5836 5838
5689 5685 5682 5679 5676 5673 5669 5666 5664 5662 5658 5656 5653 5650 5646 5643 5641 5638 5634 5632 5631 5629 5627 5627 5626 5626 5625 5625 5626 5627 5628 5628 5629 5630 5631 5632 5634 5636 5639 5641 5643 5647 5651 5654 5657 5660 5662 5669 5675 5679 5687 5698 5705 5709 5712 5715 5720 5725 5730 5736 5740 5743 5747 5752 5758 5764 5769 5772 5776 5783 5793 5799 5800 5801 5804 5806 5809 5811 5814 5817 5819 5822 5824 5826 5829 5831 5833 5835
5687 5683 5680 5677 5674 5671 5667 5664 5661 5659 5656 5653 5650 5647 5643 5640 5638 5635 5632 5629 5628 5627 5625 5624 5624 5623 5623 5623 5624 5624 5625 5625 5626 5627 5627 5627 5629 5630 5633 5636 5638 5642 5645 5649 5652 5654 5657 5664 5670 5673 5680 5691 5700 5705 5707 5710 5716 5722 5728 5733 5735 5738 5743 5750 5756 5762 5766 5768 5774 5782 5792 5797 5798 5799 5801 5803 5805 5807 5811 5814 5816 5819 5821 5824 5826 5829 5831 5833
5686 5682 5678 5675 5672 5668 5665 5661 5658 5656 5653 5650 5648 5645 5642 5638 5635 5633 5630 5627 5625 5625 5624 5623 5622 5621 5621 5621 5621 5621 5622 5623 5624 5624 5623 5624 5624 5625 5628 5631 5633 5636 5640 5644 5646 5649 5654 5660 5664 5667 5674 5686 5694 5699 5703 5706 5711 5718 5724 5727 5730 5734 5741 5747 5753 5759 5762 5765 5773 5782 5790 5795 5796 5796 5798 5800 5802 5805 5808 5811 5814 5816 5819 5821 5824 5826 5828 5830
5686 5681 5677 5673 5670 5666 5662 5659 5656 5653 5651 5648 5646 5643 5640 5637 5634 5631 5629 5626 5624 5623 5622 5621 5620 5619 5618 5618 5618 5619 5619 5619 5620 5620 5620 5621 5621 5621 5623 5626 5628 5630 5634 5637 5640 5645 5650 5655 5659 5662 5668 5679 5688 5693 5699 5703 5708 5715 5719 5721 5725 5731 5737 5744 5750 5755 5758 5762 5771 5779 5785 5791 5794 5794 5795 5797 5799 5802 5805 5808 5811 5814 5816 5819 5821 5824 5826 5828
5685 5681 5677 5672 5668 5664 5660 5657 5654 5652 5649 5646 5644 5642 5638 5635 5632 5629 5627 5625 5623 5622 5621 5620 5619 5617 5616 5616 5616 5616 5616 5616 5617 5616 5617 5618 5619 5619 5619 5620 5622 5625 5629 5631 5634 5640 5645 5650 5654 5656 5661 5674 5683 5688 5694 5700 5704 5709 5713 5716 5722 5727 5734 5740 5746 5751 5754 5759 5767 5774 5779 5787 5791 5791 5793 5795 5796 5800 5803 5806 5809 5812 5815 5817 5820 5822 5824 5826